TimeEDT,TemperatureF,Dew PointF,Humidity,Sea Level PressureIn,VisibilityMPH,Wind Direction,Wind SpeedMPH,Gust SpeedMPH,PrecipitationIn,Events,Conditions,WindDirDegrees,DateUTC
12:58 AM,70.5,59.5,68,29.86,10.0,WSW,8.1,-,N/A,,Clear,240,2013-05-24 04:58:00
1:58 AM,69.4,57.7,66,29.85,10.0,West,10.4,-,N/A,,Clear,270,2013-05-24 05:58:00
2:58 AM,67.8,57.2,69,29.85,10.0,West,8.1,-,N/A,,Clear,280,2013-05-24 06:58:00
3:58 AM,66.7,57.4,72,29.86,10.0,WNW,6.9,-,N/A,,Clear,290,2013-05-24 07:58:00
4:58 AM,66.4,56.8,71,29.88,10.0,WNW,8.1,-,N/A,,Partly Cloudy,290,2013-05-24 08:58:00
5:58 AM,65.5,56.8,74,29.89,10.0,WNW,6.9,-,N/A,,Clear,290,2013-05-24 09:58:00
6:58 AM,64.4,55.8,73,29.91,10.0,WNW,6.9,-,N/A,,Clear,300,2013-05-24 10:58:00
7:58 AM,67.6,54.5,63,29.93,10.0,WNW,10.4,-,N/A,,Clear,300,2013-05-24 11:58:00
8:58 AM,71.1,54.1,55,29.94,10.0,WNW,11.5,-,N/A,,Clear,300,2013-05-24 12:58:00
9:58 AM,73.6,52.3,47,29.96,10.0,NW,11.5,-,N/A,,Clear,320,2013-05-24 13:58:00
10:58 AM,76.1,50.9,41,29.98,10.0,NW,10.4,-,N/A,,Clear,320,2013-05-24 14:58:00
11:36 AM,78.8,50.0,36,29.99,10.0,NW,12.7,-,N/A,,Partly Cloudy,310,2013-05-24 15:36:00
11:58 AM,77.9,50.7,39,29.99,10.0,NW,12.7,20.7,N/A,,Scattered Clouds,310,2013-05-24 15:58:00
12:42 PM,78.8,48.2,34,30.00,10.0,WNW,18.4,26.5,N/A,,Partly Cloudy,300,2013-05-24 16:42:00
12:58 PM,78.6,46.4,32,30.00,10.0,NNW,18.4,24.2,N/A,,Partly Cloudy,340,2013-05-24 16:58:00
1:29 PM,78.8,48.2,34,30.00,10.0,North,16.1,23.0,N/A,,Scattered Clouds,350,2013-05-24 17:29:00
1:36 PM,78.8,48.2,34,30.00,10.0,NW,12.7,24.2,N/A,,Partly Cloudy,310,2013-05-24 17:36:00
1:37 PM,78.8,48.2,34,30.00,10.0,WNW,16.1,24.2,N/A,,Partly Cloudy,300,2013-05-24 17:37:00
1:41 PM,80.6,48.2,32,30.00,10.0,North,16.1,24.2,N/A,,Partly Cloudy,350,2013-05-24 17:41:00
1:47 PM,78.8,48.2,34,30.00,10.0,NW,15.0,24.2,N/A,,Partly Cloudy,310,2013-05-24 17:47:00
1:58 PM,79.3,48.0,33,30.00,10.0,NW,17.3,24.2,N/A,,Partly Cloudy,320,2013-05-24 17:58:00
2:56 PM,80.6,50.0,34,30.01,10.0,NW,15.0,21.9,N/A,,Clear,310,2013-05-24 18:56:00
2:58 PM,79.9,49.3,34,30.01,10.0,NW,15.0,21.9,N/A,,Clear,310,2013-05-24 18:58:00
3:09 PM,78.8,46.4,32,30.01,10.0,NW,16.1,23.0,N/A,,Clear,310,2013-05-24 19:09:00
3:10 PM,78.8,46.4,32,30.01,10.0,NW,16.1,23.0,N/A,,Clear,310,2013-05-24 19:10:00
3:14 PM,80.6,46.4,30,30.01,10.0,North,17.3,25.3,N/A,,Partly Cloudy,350,2013-05-24 19:14:00
3:15 PM,80.6,46.4,30,30.01,10.0,North,17.3,25.3,N/A,,Partly Cloudy,360,2013-05-24 19:15:00
3:19 PM,78.8,44.6,30,30.02,10.0,NW,12.7,25.3,N/A,,Partly Cloudy,310,2013-05-24 19:19:00
3:20 PM,78.8,44.6,30,30.02,10.0,NW,12.7,25.3,N/A,,Partly Cloudy,310,2013-05-24 19:20:00
3:54 PM,78.8,32.0,18,30.02,10.0,North,20.7,27.6,N/A,,Clear,350,2013-05-24 19:54:00
3:58 PM,79.5,31.1,17,30.03,10.0,NNW,16.1,27.6,N/A,,Clear,330,2013-05-24 19:58:00
4:27 PM,78.8,32.0,18,30.04,10.0,North,12.7,21.9,N/A,,Clear,360,2013-05-24 20:27:00
4:29 PM,78.8,32.0,18,30.04,10.0,NW,15.0,21.9,N/A,,Clear,310,2013-05-24 20:29:00
4:32 PM,78.8,32.0,18,30.04,10.0,NW,18.4,25.3,N/A,,Clear,310,2013-05-24 20:32:00
4:42 PM,78.8,30.2,17,30.04,10.0,North,20.7,27.6,N/A,,Clear,350,2013-05-24 20:42:00
4:43 PM,78.8,30.2,17,30.04,10.0,North,20.7,27.6,N/A,,Clear,350,2013-05-24 20:43:00
4:58 PM,78.1,21.2,12,30.04,10.0,North,16.1,21.9,N/A,,Clear,350,2013-05-24 20:58:00
5:49 PM,77.0,32.0,19,30.05,10.0,North,11.5,24.2,N/A,,Clear,360,2013-05-24 21:49:00
5:58 PM,76.8,33.3,20,30.06,10.0,North,11.5,19.6,N/A,,Clear,350,2013-05-24 21:58:00
6:58 PM,74.8,33.8,22,30.07,10.0,NW,10.4,-,N/A,,Clear,310,2013-05-24 22:58:00
7:58 PM,71.6,35.4,27,30.10,10.0,NW,4.6,-,N/A,,Clear,320,2013-05-24 23:58:00
8:58 PM,67.1,33.8,29,30.12,10.0,North,5.8,-,N/A,,Clear,350,2013-05-25 00:58:00
9:58 PM,65.5,31.6,28,30.14,10.0,NNW,5.8,-,N/A,,Clear,330,2013-05-25 01:58:00
10:58 PM,65.1,30.6,27,30.16,10.0,North,9.2,-,N/A,,Clear,350,2013-05-25 02:58:00
11:58 PM,60.4,36.1,40,30.18,10.0,NE,5.8,-,N/A,,Clear,40,2013-05-25 03:58:00